EHI
0 0 0 0 0 0 0 1 3 2 1 0 2 5 7 8 14 19 21 19 13 7 8 13 18 24 29 28 23 21 21 20 20 18 16 15 13 9 5 3 2 3 3 2
0 0 0 0 0 0 1 2 3 2 1 0 1 3 5 7 11 16 19 18 13 10 12 16 20 25 28 27 25 24 24 23 21 18 16 14 13 9 6 3 2 2 3 2
0 0 0 0 0 1 1 2 3 2 1 0 0 1 3 6 10 12 15 15 13 12 16 18 21 26 27 26 26 26 26 25 23 19 17 16 14 10 7 5 4 2 2 1
0 0 0 0 0 0 1 2 2 1 0 0 0 0 1 5 8 9 10 11 12 13 16 19 22 25 27 27 27 27 26 25 24 22 20 18 14 11 8 7 6 4 2 1
0 0 0 0 0 0 0 1 1 1 0 0 0 1 1 3 5 6 7 8 11 13 15 19 24 28 29 29 30 31 30 28 26 25 23 18 14 11 9 8 7 5 2 2
0 0 0 0 0 0 0 0 0 0 0 0 0 1 1 1 4 6 9 12 13 15 18 21 26 31 33 34 35 37 36 33 30 28 25 20 15 11 9 8 7 4 2 1
0 0 0 0 0 0 0 0 0 0 0 0 0 1 1 1 4 9 13 15 17 20 23 25 29 32 35 37 40 41 39 36 33 29 26 23 17 13 10 8 6 3 1 0
0 0 0 0 0 0 0 0 0 0 0 0 0 0 0 1 6 12 15 15 18 23 26 29 31 32 34 36 40 42 40 36 33 29 26 22 17 12 8 6 4 3 1 0
0 0 0 0 0 0 0 0 0 0 0 0 0 0 0 2 7 13 15 16 19 24 27 28 29 30 32 35 38 40 39 36 32 28 25 20 15 10 6 4 4 4 2 1
0 0 0 0 0 0 0 0 0 0 0 0 0 0 1 3 6 9 13 17 20 23 24 24 24 25 29 31 33 35 36 33 30 27 25 21 17 13 8 6 7 8 6 5
0 0 0 0 0 0 0 0 0 0 0 0 0 0 1 4 5 5 9 15 19 20 19 19 18 20 24 26 28 30 30 29 28 26 24 22 20 17 13 11 12 12 12 11
0 0 0 0 0 0 0 0 0 0 0 0 0 0 2 5 6 5 8 14 16 15 14 15 16 18 23 26 27 29 30 29 28 26 24 23 21 18 16 14 13 12 12 12
0 0 0 0 0 0 0 0 0 0 0 0 1 2 4 7 9 8 9 11 13 12 12 13 15 20 25 28 30 31 32 33 32 30 27 25 23 20 16 13 10 8 9 9
0 0 0 0 0 0 0 0 0 0 0 1 2 3 6 8 9 9 9 10 13 14 14 15 19 23 26 28 29 31 33 36 34 31 28 28 28 24 18 13 9 8 7 7
0 0 0 0 0 0 0 0 1 1 1 1 3 4 5 7 9 10 11 14 18 18 17 19 23 26 25 25 27 30 33 35 32 28 26 27 28 26 21 15 12 9 8 7
0 0 0 0 0 0 0 0 1 2 2 2 2 3 5 8 11 13 15 18 22 21 20 21 24 25 25 25 27 29 31 32 29 26 24 24 26 26 23 19 15 11 9 9
0 0 0 0 0 0 0 0 1 2 2 2 2 3 7 11 14 15 16 18 19 19 20 21 22 23 24 25 28 28 28 28 28 27 24 23 24 25 24 22 18 13 11 10
0 0 0 0 0 0 0 0 1 2 3 4 6 7 10 13 13 14 14 14 15 16 18 20 21 21 22 23 25 26 26 27 28 28 25 24 25 25 24 23 21 17 14 13
0 0 0 0 0 0 0 0 1 2 4 7 10 11 13 13 12 13 13 13 15 16 17 19 19 19 19 21 23 24 24 24 26 26 24 23 25 26 25 24 22 19 17 15
0 0 0 0 0 0 0 0 1 2 4 7 11 13 13 11 12 13 13 15 17 18 18 19 19 18 18 19 21 23 22 21 21 22 21 21 24 26 27 26 23 19 17 16
0 0 0 0 0 0 0 0 1 1 4 7 10 11 10 9 10 12 13 14 17 19 20 20 19 17 17 17 19 21 21 19 19 19 18 18 22 25 26 25 23 20 17 16
0 0 0 0 0 0 0 0 1 3 5 8 8 7 6 6 8 10 11 12 15 17 18 17 16 16 16 16 17 19 19 18 18 19 18 17 20 23 23 22 21 20 17 16
0 1 2 1 1 1 2 2 3 4 5 6 5 4 4 4 6 7 7 8 11 14 14 13 13 14 15 15 17 18 18 17 18 18 17 16 18 19 19 19 19 19 17 16
1 2 3 3 3 4 5 5 5 5 4 3 2 1 1 2 3 4 4 5 7 10 10 10 11 12 12 13 16 18 18 18 17 16 14 13 14 15 15 17 18 18 17 17
0 1 3 4 5 6 6 6 5 3 3 3 2 0 0 1 1 1 2 3 6 7 7 6 7 9 10 12 14 16 17 16 15 13 11 9 10 11 11 12 13 13 14 15
0 1 3 5 5 5 4 3 2 2 3 4 3 1 0 0 0 0 1 3 6 6 5 4 4 6 10 13 13 14 15 14 12 12 9 8 9 10 9 8 7 8 10 11
Wind_Speed
2 1 5 8 8 7 4 2 3 4 3 3 3 3 5 6 7 7 7 8 8 9 7 8 9 10 8 7 7 7 6 6 5 3 3 3 2 1 1 1 2 2 2 2
3 6 11 8 5 3 1 1 2 2 1 3 3 1 2 3 7 9 11 10 9 7 6 7 8 8 9 9 8 7 7 7 6 4 3 3 3 2 2 1 1 2 2 2
7 9 7 6 5 4 3 4 4 2 1 3 3 2 2 3 2 5 7 8 8 9 9 8 8 8 8 8 9 8 7 7 6 5 3 3 2 2 1 1 1 1 1 2
7 8 6 6 6 4 4 4 3 1 2 1 1 1 5 3 2 4 6 6 7 7 8 8 8 9 9 9 8 7 7 7 6 6 5 5 4 3 3 2 2 2 2 2
7 6 5 7 7 5 5 3 3 2 3 1 2 2 5 2 3 5 6 8 9 9 10 9 9 10 9 8 7 6 6 6 6 6 6 6 4 3 2 2 2 2 1 2
9 7 5 6 4 3 3 3 3 3 4 1 4 2 5 4 7 6 5 7 8 8 8 8 8 7 6 6 6 6 6 5 6 6 6 6 6 5 4 3 3 2 1 1
7 7 5 3 1 3 3 5 3 5 4 4 3 2 6 6 5 6 6 6 5 6 6 7 7 7 7 7 7 6 7 6 6 6 6 6 6 6 6 5 4 3 1 1
4 7 5 3 6 6 4 9 8 5 4 4 2 3 5 4 4 4 5 6 6 7 7 7 8 8 8 8 8 7 7 6 6 7 6 5 5 5 4 4 4 4 3 2
5 7 6 5 4 7 3 3 8 7 3 1 3 3 5 2 1 3 5 5 7 7 6 6 6 6 6 7 7 7 7 7 7 7 6 5 5 5 5 4 4 3 2 2
7 4 6 4 2 0 6 6 5 5 4 2 3 3 4 4 3 3 5 5 6 6 6 5 6 6 5 6 6 6 7 8 7 7 6 6 5 5 5 5 4 4 3 3
4 4 5 3 1 3 1 2 4 4 5 6 3 6 6 8 6 5 6 6 6 6 7 7 7 6 6 5 5 6 6 5 6 6 6 5 4 4 4 4 4 4 3 3
2 5 2 5 5 3 5 5 7 5 3 4 4 7 4 6 6 5 4 3 4 6 6 6 6 6 5 5 5 6 6 6 6 6 6 5 5 4 4 3 3 4 3 3
3 6 2 7 7 6 1 1 4 6 5 4 4 5 2 2 2 3 3 2 3 4 4 5 5 5 5 5 5 5 6 6 5 5 6 5 5 5 4 4 3 3 3 2
5 5 6 6 6 4 3 3 2 6 4 4 6 6 3 3 4 3 2 3 4 5 4 5 4 4 4 5 5 5 5 6 6 6 6 5 5 5 5 4 4 3 3 3
6 3 2 3 3 1 2 3 1 3 7 7 7 8 9 9 8 6 4 4 5 5 5 4 4 4 4 4 4 5 5 5 6 6 5 5 5 4 4 4 4 3 3 3
4 3 2 3 3 4 3 3 3 0 3 6 6 3 5 6 5 5 5 6 6 5 4 3 3 4 4 4 4 4 4 5 6 6 5 4 4 4 4 4 4 3 3 3
1 3 2 2 4 4 3 2 0 1 1 5 5 6 6 7 7 6 7 7 6 5 4 3 3 3 3 3 3 4 4 4 5 5 4 4 4 4 4 4 3 4 4 3
4 3 3 1 3 1 6 3 2 4 3 2 4 5 7 8 7 5 6 7 6 5 4 3 2 2 1 1 3 3 4 4 4 4 3 4 4 4 4 3 3 3 3 3
6 6 4 3 2 3 5 3 0 4 3 3 6 6 6 7 8 5 3 5 6 5 4 3 3 3 3 3 3 4 4 3 3 3 4 4 5 4 4 4 4 3 2 2
3 5 5 4 3 4 5 6 2 6 2 3 5 6 5 6 5 1 1 5 6 5 4 3 2 3 3 2 3 4 3 3 2 3 3 4 4 4 4 4 4 2 2 2
4 3 3 3 3 4 5 6 3 4 4 0 4 4 4 3 4 5 4 4 5 5 4 3 3 2 2 2 4 3 2 2 2 1 1 2 3 4 4 3 3 2 2 2
2 1 1 2 2 4 6 3 3 4 3 4 5 5 5 4 5 5 5 5 4 4 4 3 3 1 1 2 4 3 1 2 1 1 1 1 2 2 2 2 2 2 3 3
1 3 3 4 4 4 1 3 2 5 5 4 4 5 5 5 4 4 4 4 4 3 2 2 3 2 0 1 3 3 2 1 1 1 0 1 1 1 2 3 3 2 3 2
3 2 3 3 1 2 4 6 5 5 6 5 5 5 5 4 4 3 3 3 2 2 2 2 2 2 0 0 1 1 1 1 2 1 0 1 1 1 1 2 2 3 3 3
3 2 3 2 0 3 4 4 4 4 6 6 5 4 4 4 3 2 2 2 2 2 2 2 2 1 1 1 0 0 1 2 1 1 1 1 1 1 1 1 1 2 3 4
2 1 3 4 4 2 3 2 2 4 4 4 5 4 3 3 3 3 1 1 2 1 1 1 1 1 2 1 1 1 1 2 2 1 1 1 1 1 1 1 1 3 2 4
Wind_Direction
268 117 244 242 216 212 218 225 241 236 225 134 159 160 184 168 159 167 171 172 176 182 182 172 166 160 157 156 156 158 155 161 153 147 145 135 138 147 143 159 154 144 138 126
342 261 244 244 249 248 198 245 268 273 240 134 125 150 220 184 183 181 178 177 180 178 172 171 167 165 165 165 164 164 166 166 164 165 159 149 143 145 152 157 135 137 130 129
226 249 256 241 252 265 251 201 217 209 22 57 86 355 312 264 197 180 182 179 178 178 179 175 171 170 170 171 174 174 173 168 167 154 134 121 96 80 87 113 141 150 143 122
249 252 264 261 253 225 259 221 177 145 88 318 116 236 284 254 241 207 199 188 187 183 177 175 174 172 176 182 179 173 171 166 165 155 151 153 154 165 185 169 156 152 155 142
256 259 250 249 242 216 224 195 146 166 139 78 355 133 276 280 240 241 222 196 191 185 176 172 178 178 179 180 176 174 166 166 164 160 160 159 159 163 147 132 136 149 158 149
252 259 230 228 239 206 158 67 39 42 73 54 255 165 261 244 220 223 220 194 187 174 172 175 179 167 172 175 171 168 161 170 170 165 164 163 163 158 146 148 156 164 151 133
286 283 259 212 261 301 86 89 32 359 6 255 253 179 241 241 220 205 195 177 172 164 167 177 176 170 173 175 178 176 171 174 173 167 170 167 165 159 163 166 167 163 159 166
232 277 263 228 196 206 208 144 157 192 221 266 302 230 250 243 223 200 172 161 157 172 178 180 183 179 178 178 176 177 171 171 173 168 167 162 157 159 162 163 161 168 174 180
196 249 272 248 208 161 183 196 167 144 166 178 258 270 297 329 83 138 142 147 156 177 170 176 176 171 173 174 176 172 165 167 172 166 154 150 158 156 158 159 157 167 174 171
175 234 276 287 22 2 165 162 98 113 153 220 270 251 232 240 203 163 161 163 171 167 156 163 168 171 179 172 166 165 165 171 168 164 165 163 165 164 161 159 165 173 177 174
153 179 283 335 227 231 114 106 117 130 155 158 221 262 221 207 196 187 194 180 173 166 167 169 170 178 177 163 157 157 160 157 159 165 164 163 165 166 163 167 176 179 178 174
152 132 242 264 260 206 167 177 145 147 219 161 164 258 260 202 192 179 181 169 168 163 166 164 160 164 166 163 164 163 160 160 166 163 158 167 160 156 160 176 181 173 177 180
107 102 55 342 341 356 6 224 159 144 136 151 160 250 293 146 169 178 169 159 145 150 142 136 139 149 155 155 156 162 163 162 157 154 160 165 165 164 169 177 187 174 172 176
110 108 152 191 225 253 300 298 189 134 152 183 197 196 219 198 195 196 173 151 132 129 123 119 121 135 147 153 160 166 163 157 154 156 160 168 177 177 179 176 181 182 175 171
86 106 174 218 247 275 323 324 324 164 174 174 198 188 204 197 188 184 173 158 127 115 117 126 128 132 145 156 162 157 155 157 157 156 161 175 178 174 173 173 174 184 182 174
67 97 46 351 356 8 14 9 29 356 161 152 145 190 208 177 152 147 154 143 126 119 123 131 133 133 142 154 158 151 155 163 158 160 172 175 168 168 175 180 177 181 185 184
71 101 75 303 323 30 347 278 160 53 102 160 178 197 151 136 147 156 149 138 133 131 135 145 150 148 149 148 146 159 162 149 149 158 165 165 167 173 183 186 182 190 196 193
151 118 129 152 34 209 246 266 101 96 49 83 122 139 149 146 137 124 131 139 139 138 134 136 124 104 83 95 112 118 120 129 138 146 159 171 176 185 188 184 192 205 199 197
160 146 131 126 169 262 299 318 17 115 52 47 111 120 125 121 88 61 81 120 132 131 130 132 135 126 108 99 102 106 113 122 135 158 179 189 187 188 189 195 202 206 195 200
71 111 126 138 157 218 257 288 290 101 52 3 93 117 122 100 103 204 134 107 105 104 113 116 114 105 109 117 112 109 117 128 155 187 197 198 194 191 197 200 202 199 186 195
11 32 113 154 187 248 278 302 43 118 215 227 92 102 100 113 170 173 130 110 112 109 108 107 106 114 149 143 123 124 130 169 211 210 193 205 204 200 201 194 187 176 170 164
137 87 106 121 130 260 309 26 108 182 160 109 92 85 83 104 116 123 125 123 112 97 90 100 104 108 162 137 128 134 192 234 218 173 198 219 214 207 189 173 174 171 169 171
123 183 176 165 196 243 335 99 122 124 107 100 103 102 101 106 117 123 131 132 124 121 108 102 119 109 60 136 142 163 229 234 135 108 197 224 213 202 185 179 180 179 177 179
323 26 87 74 19 24 56 68 60 82 93 92 101 106 97 109 116 109 120 134 132 128 117 102 102 105 82 323 138 183 212 153 123 134 271 237 195 207 204 194 185 184 190 194
285 3 69 76 355 31 32 59 74 75 86 87 86 89 101 106 115 121 127 152 160 157 148 126 129 165 219 220 187 192 194 147 139 180 230 220 199 195 194 216 218 209 212 202
273 187 155 202 212 174 256 274 101 100 103 104 95 79 79 100 114 106 113 154 162 160 146 133 153 205 231 220 264 263 211 165 165 198 242 234 210 209 195 190 317 310 261 230